Regional Weather Roundup
Issued by NWS

Home | Current Version | Previous Version | Graphics & Text | Print | Product List | Glossary On
Versions: 1 2 3 4 5 6 7 8 9 10 11 12 13 14 15 16 17 18 19 20 21 22 23 24 25 26 27 28 29 30 31 32 33 34 35 36 37 38 39 40 41 42 43 44 45 46 47 48 49 50
000
ASUS45 KPSR 060610
RWRAZ

ARIZONA HOURLY REGIONAL WEATHER ROUNDUP
NATIONAL WEATHER SERVICE PHOENIX AZ
1100 PM MST FRI FEB 05 2016

NOTE: FAIR INDICATES FEW OR NO CLOUDS BELOW 12,000 FEET WITH NO
SIGNIFICANT WEATHER AND/OR OBSTRUCTIONS TO VISIBILITY.

AZZ001>003-036-060700-
NORTHWEST ARIZONA

CITY           SKY/WX    TMP DP  RH WIND       PRES   REMARKS
BULLHEAD CITY  CLEAR     57  25  28 N16       30.42R
KINGMAN        CLEAR     39  50 100 E15       30.44S WCI  31
6HR MIN TEMP:  33; 6HR MAX TEMP:  54;

$$

AZZ004>008-015-016-018-060700-
NORTH CENTRAL ARIZONA

CITY           SKY/WX    TMP DP  RH WIND       PRES   REMARKS
GRAND CANYON   PTCLDY    17  11  77 NE3       30.47S
6HR MIN TEMP:  15; 6HR MAX TEMP:  35;

WILLIAMS       CLEAR     19   5  53 SE7       30.49S WCI  10
PRESCOTT       CLEAR     29  16  58 S3        30.44R
6HR MIN TEMP:  26; 6HR MAX TEMP:  49;

FLAGSTAFF      CLEAR     23  12  62 E10       30.45S WCI  12
6HR MIN TEMP:  23; 6HR MAX TEMP:  31;

PAYSON         CLEAR     36  12  38 CALM      30.44R
PAGE           CLEAR     32  22  66 CALM      30.51S
6HR MIN TEMP:  30; 6HR MAX TEMP:  41;

$$

AZZ009>014-017-060700-
NORTHEAST ARIZONA

CITY           SKY/WX    TMP DP  RH WIND       PRES   REMARKS
WINSLOW        CLEAR     25  17  72 CALM      30.50S
6HR MIN TEMP:  22; 6HR MAX TEMP:  44;

SAINT JOHNS    CLEAR     23  15  71 S7        30.47R WCI  15
6HR MIN TEMP:  22; 6HR MAX TEMP:  42;

WINDOW ROCK    CLEAR     15   0  51 CALM      30.46S
6HR MIN TEMP:  14; 6HR MAX TEMP:  37;

SHOW LOW       LGT RAIN  18  14  86 CALM      30.48F
$$

AZZ023-060700-
GREATER PHOENIX AREA

CITY           SKY/WX    TMP DP  RH WIND       PRES   REMARKS
PHOENIX        CLEAR     59  10  14 NE10      30.33S
6HR MIN TEMP:  55; 6HR MAX TEMP:  68;

BUCKEYE        CLEAR     55  14  19 NE13      30.35S
LUKE AFB       CLEAR     55  17  22 NE17      30.33S
6HR MIN TEMP:  55; 6HR MAX TEMP:  68;

DEER VALLEY    CLEAR     51  14  22 N9        30.35R
6HR MIN TEMP:  50; 6HR MAX TEMP:  67;

SCOTTSDALE     CLEAR     58   6  12 NE12      30.36R
6HR MIN TEMP:  56; 6HR MAX TEMP:  67;

MESA-GATEWAY   CLEAR     48  18  29 VRB5      30.34R
$$

AZZ027-028-060700-
SOUTHWEST MARICOPA COUNTY AND PINAL COUNTY

CITY           SKY/WX    TMP DP  RH WIND       PRES   REMARKS
CASA GRANDE    CLEAR     48  16  27 N8        30.33R
6HR MIN TEMP:  48; 6HR MAX TEMP:  64;

GILA BEND      FAIR      52  20  28 NE8       30.32R
6HR MIN TEMP:  49; 6HR MAX TEMP:  66;

$$

AZZ503-504-507>509-060700-
SOUTHEAST ARIZONA

CITY           SKY/WX    TMP DP  RH WIND       PRES   REMARKS
TUCSON         CLEAR     47  17  30 S6        30.35R
6HR MIN TEMP:  45; 6HR MAX TEMP:  65;

DAVIS-MONTHAN  CLEAR     42  15  34 S7        30.33R
6HR MIN TEMP:  42; 6HR MAX TEMP:  62;

NOGALES        CLEAR     41  10  28 N9        30.34R
6HR MIN TEMP:  40; 6HR MAX TEMP:  63;

SIERRA VISTA   CLEAR     37  12  36 S10       30.38S WCI  29
6HR MIN TEMP:  36; 6HR MAX TEMP:  55;

DOUGLAS        CLEAR     37  10  32 E9        30.39R WCI  30
6HR MIN TEMP:  36; 6HR MAX TEMP:  57;

SAFFORD        CLEAR     48   9  20 E13       30.38R
6HR MIN TEMP:  37; 6HR MAX TEMP:  59;

$$

AZZ020-021-025-026-031-060700-
SOUTHWEST ARIZONA

CITY           SKY/WX    TMP DP  RH WIND       PRES   REMARKS
YUMA           CLEAR     59  23  25 N10       30.33S
6HR MIN TEMP:  57; 6HR MAX TEMP:  71;

$$

CAZ031-033-041-043-047-048-061-060700-
SOUTHERN CALIFORNIA

CITY           SKY/WX    TMP DP  RH WIND       PRES   REMARKS
DOWNTOWN L.A.  CLEAR     60  29  30 CALM      30.27S
6HR MIN TEMP:  59; 6HR MAX TEMP:  76;

L.A. AIRPORT   CLEAR     61  24  24 E3        30.27S
6HR MIN TEMP:  61; 6HR MAX TEMP:  72;

SAN DIEGO      CLEAR     59  39  47 CALM      30.26F
6HR MIN TEMP:  59; 6HR MAX TEMP:  72;

BURBANK        CLEAR     58  22  24 CALM      30.28S
6HR MIN TEMP:  57; 6HR MAX TEMP:  76;

ONTARIO        CLEAR     53  26  35 NW3       30.29S
6HR MIN TEMP:  53; 6HR MAX TEMP:  73;

RIVERSIDE      CLEAR     58  21  24 SE5       30.32S
6HR MIN TEMP:  56; 6HR MAX TEMP:  73;

PALM SPRINGS   CLEAR     60  25  26 VRB5      30.37F
6HR MIN TEMP:  59; 6HR MAX TEMP:  74;

EL CENTRO NAS  CLEAR     48  22  35 W8        30.37R
6HR MIN TEMP:  48; 6HR MAX TEMP:  72;

IMPERIAL       CLEAR     50  26  39 W7        30.34S
6HR MIN TEMP:  48; 6HR MAX TEMP:  72;

BLYTHE         CLEAR     53  22  29 NW10      30.36S
6HR MIN TEMP:  53; 6HR MAX TEMP:  70;

NEEDLES        CLEAR     57  24  28 N13       30.40S
6HR MIN TEMP:  57; 6HR MAX TEMP:  65;

$$

NVZ020-UTZ003-060700-
SOUTHERN NEVADA-UTAH

CITY           SKY/WX    TMP DP  RH WIND       PRES   REMARKS
LAS VEGAS      CLEAR     48  25  40 CALM      30.42F
6HR MIN TEMP:  47; 6HR MAX TEMP:  59;

SALT LAKE CITY PTCLDY    27  21  78 SE9       30.53F WCI  18
6HR MIN TEMP:  27; 6HR MAX TEMP:  35;

$$

NMZ009-TXZ055-060700-
NEW MEXICO-WEST TEXAS

CITY           SKY/WX    TMP DP  RH WIND       PRES   REMARKS
ALBUQUERQUE    CLOUDY    31  12  45 NW12      30.46S WCI  22
6HR MIN TEMP:  30; 6HR MAX TEMP:  41;

EL PASO        PTCLDY    37   3  24 N12       30.42R WCI  29
6HR MIN TEMP:  36; 6HR MAX TEMP:  52;

$$


........................KEY........................
SKY/WX - SKY CONDITION/WEATHER
TMP    - TEMPERATURE IN FAHRENHEIT
DP     - DEW POINT IN FAHRENHEIT
RH     - RELATIVE HUMIDITY IN PERCENT
WIND   - DIRECTION AND SPEED IN MILES PER HOUR (MPH)
VRB    - VARIABLE WIND DIRECTION
PRES   - MEAN SEA LEVEL PRESSURE IN INCHES OF MERCURY
         F - FALLING PRESSURE   R - RISING PRESSURE
         S - STEADY PRESSURE
VSB    - VISIBILITY IN MILES
HX     - HEAT INDEX IN FAHRENHEIT
WCI    - WIND CHILL INDEX IN FAHRENHEIT
TC     - TEMPERATURE IN CELSIUS WHICH IS ALSO KNOWN AS
         TEMPERATURE IN CENTIGRADE
AFB    - AIR FORCE BASE
         LUKE AFB IS LUKE AIR FORCE BASE
         DAVIS-MONTHAN IS DAVIS-MONTHAN AIR FORCE BASE
NAS    - NAVAL AIR STATION
         EL CENTRO NAS IS EL CENTRO NAVAL AIR STATION
N/A    - NOT AVAILABLE




USA.gov is the U.S. government's official web portal to all federal, state and local government web resources and services.